[[{"header":{"parameterUnit":"m.s-1","parameterCategory":1,"la1":30.2991,"la2":30.254,"lo1":-89.0895,"lo2":-89.0444,"dy":0.0017,"dx":0.0017,"nx":28,"ny":28,"refTime":"2024-05-18T21:00:00:Z","depth":0,"parameterNumber":2,"parameterNumberName":"U-component_of_WINDS"},"data":[0,0,0,0,0,0,0,0,0,0,0,0,0,0,0,0,0,0,0,0,0,0,0,0,0,0,0,0,0,0,0,0,0,0,0,0,0,0,0,0,0,0,0,0,0,0,0,0,0,0,0,0,0,0,0,0,0,0,2.8168,2.8169,0,2.8242,2.8243,2.8244,2.8182,2.818,2.8177,2.8175,2.825,2.8254,2.8258,0,0,0,0,0,0,0,0,0,0,0,0,0,2.7974,2.7978,2.8168,2.8169,2.817,2.8242,2.8243,2.8244,2.8183,2.818,2.8177,2.8174,2.8248,2.8253,2.8259,0,0,0,0,0,0,0,0,0,0,0,0,0,2.8054,2.7979,2.8168,2.8148,2.8147,2.8242,2.8243,2.8244,2.8184,2.818,2.8176,2.8172,2.8246,2.8253,2.8259,2.8377,0,0,2.8279,2.8282,0,0,0,0,0,0,0,0,2.805,2.8061,2.815,2.815,2.8149,2.8199,2.8202,2.8289,2.8184,2.817,2.8175,2.817,2.8236,2.8243,2.8265,2.838,2.8383,2.828,2.8284,2.8287,2.8289,0,0,0,0,0,0,0,2.8044,2.8058,2.8197,2.8151,2.8151,2.8136,2.8143,2.8218,2.8223,2.8171,2.8166,2.8176,2.8235,2.8259,2.8267,2.8385,2.828,2.8286,2.829,2.8292,2.86,2.8604,0,0,0,0,0,0,2.8041,2.8054,2.8195,2.8199,2.8089,2.8142,2.815,2.8187,2.8222,2.8224,2.8179,2.8173,2.825,2.8259,2.8269,2.8408,2.8287,2.8293,2.8297,2.8596,2.8601,2.8605,0,0,0,0,0,0,2.8037,2.8054,2.8192,2.8125,2.8142,2.815,2.8191,2.819,2.8214,2.8229,2.8229,2.8203,2.8247,2.826,2.835,2.841,2.8296,2.8302,2.8591,2.8597,2.8603,2.8688,0,0,0,0,0,0,2.8031,2.8053,2.8097,2.8127,2.8146,2.8272,2.8195,2.8194,2.8226,2.8219,2.8251,2.8253,2.8245,2.8341,2.8357,2.8417,2.8307,2.8585,2.8594,2.8601,2.868,2.8696,2.871,0,0,0,0,0,2.8025,2.8118,2.81,2.8117,2.8201,2.8276,2.8286,2.8275,2.8231,2.8276,2.8285,2.8252,2.8402,2.8351,2.8368,2.8431,2.8581,2.8591,2.86,2.8673,2.8693,2.871,0,0,0,0,0,0,2.8094,2.8121,2.8101,2.8207,2.824,2.8265,2.8321,2.8297,2.8342,2.8333,2.8318,2.8326,2.8421,2.8436,2.8379,2.8547,2.8484,2.8498,2.8533,2.8553,2.8568,2.8561,2.8312,0,0,0,0,0,2.8122,2.818,2.8201,2.8292,2.831,2.8313,2.8345,2.8334,2.8367,2.838,2.8396,2.8429,2.8483,2.8519,2.857,2.8683,2.8688,2.8734,2.875,2.8762,2.8773,2.8833,2.8854,2.8637,2.8636,2.8636,0,0,2.8179,2.8202,2.8239,2.8307,2.833,2.8391,2.8325,2.8391,2.8436,2.839,2.8476,2.849,2.8526,2.8628,2.8674,2.8643,2.8835,2.8775,2.8784,2.8788,2.8845,2.8866,2.8884,2.8643,2.8642,2.8641,0,0,2.8314,2.8338,2.8416,2.8442,2.8479,2.8481,2.8501,2.8531,2.8538,2.8625,2.8591,2.8645,2.8739,2.8765,2.8791,2.894,2.891,2.8957,2.9036,2.9095,2.9112,2.9127,2.9178,2.9197,2.8968,2.8969,2.8969,0,2.838,2.847,2.8459,2.8529,2.8559,2.8522,2.8601,2.8627,2.8679,2.8701,2.8666,2.8784,2.8805,2.8913,2.8949,2.8972,2.8993,2.8951,2.911,2.9125,2.9139,2.9188,2.9207,2.8974,2.8973,2.8973,2.8972,0,2.8549,2.8613,2.8672,2.8723,2.8761,2.8835,2.8835,2.8875,2.8862,2.8867,2.8956,2.8982,2.9037,2.9062,2.905,2.9169,2.9148,2.9113,2.9049,2.9165,2.9211,2.9229,2.8981,2.8979,2.8978,2.8977,0,0,2.8726,2.8774,2.8795,2.8818,2.8858,2.8907,2.898,2.9034,2.9068,2.9107,2.9166,2.9248,2.9216,2.9245,2.9236,2.9288,2.9402,2.9246,2.9246,2.9272,2.9534,2.9558,2.958,2.9385,2.9388,2.9391,2.953,0,2.8862,2.8988,2.8982,2.91,2.9158,2.9125,2.9189,2.922,2.9229,2.9279,2.9288,2.9345,2.9299,2.9317,2.9367,2.9378,2.9454,2.9368,2.9439,2.9441,2.9428,2.9604,2.963,2.9759,2.9548,2.9551,2.9553,0,2.9035,2.908,2.9205,2.9237,2.9261,2.9318,2.9368,2.9417,2.9453,2.9455,2.949,2.9472,2.9546,2.9483,2.9584,2.9525,2.9555,2.9565,2.957,2.9573,2.9502,2.961,2.98,2.9819,2.9581,2.9579,2.9577,0,2.915,2.9242,2.9328,2.9349,2.939,2.943,2.9449,2.9481,2.9514,2.9559,2.958,2.9633,2.966,2.9701,2.9698,2.9653,2.9801,2.9738,2.9803,2.9803,2.9833,2.983,3.0028,2.9857,2.9856,2.9856,2.9856,0,2.9299,2.9376,2.938,2.9433,2.9518,2.9511,2.9595,2.961,2.9639,2.9694,2.967,2.9721,2.9716,2.9768,2.9767,2.985,2.9864,2.9867,2.9865,2.9867,2.9866,2.9884,2.9873,2.9861,2.986,2.9859,2.9858,0,2.944,2.9446,2.9537,2.9569,2.9579,2.964,2.9667,2.9717,2.9724,2.9794,2.981,2.9822,2.9882,2.9885,2.9954,2.9953,3.0054,3.0043,3.0041,3.0038,3.0103,3.0096,3.0316,3.0344,3.0157,3.0159,3.0161,0,2.9533,2.9592,2.9631,2.9666,2.9687,2.9745,2.9779,2.9775,2.9812,2.9858,2.9903,2.9961,3.0007,3.0106,3.012,3.0173,3.0162,3.0236,3.017,3.017,3.0161,3.0156,3.0161,3.0248,3.025,3.0251,3.0253,0,2.9698,2.9699,2.975,2.9803,2.9845,2.9886,2.9924,2.9955,2.9955,2.9998,3.006,3.0097,3.0168,3.0226,3.0279,3.0297,3.0275,3.0274,3.0292,3.0293,3.0288,3.029,3.0074,3.0268,3.0267,3.0266,3.0265,3.0264,2.9816,2.9867,2.9902,2.996,2.9989,3.0026,3.0074,3.0089,3.0141,3.0199,3.0194,3.0263,3.0298,3.0366,3.0389,3.0443,3.0417,3.0443,3.0449,3.0455,3.0461,3.0283,3.0453,3.0452,3.0452,3.0452,3.0451,0,2.9978,3.0,3.0054,3.0108,3.0154,3.0132,3.0173,3.0213,3.0274,3.0309,3.0356,3.0427,3.0484,3.0504,3.0559,3.0598,3.0589,3.0612,3.0608,3.0612,3.0481,3.046,3.0619,3.0619,3.0619,3.0619,3.0619,3.0619,3.0067,3.0151,3.0156,3.0255,3.0276,3.0343,3.0369,3.0403,3.0431,3.0512,3.0559,3.0573,3.0602,3.0659,3.071,3.0715,3.0735,3.0762,3.0762,3.0639,3.0622,3.0605,3.0585,3.0767,3.0768,3.0888,3.0889,3.089]},{"header":{"parameterUnit":"m.s-1","parameterCategory":1,"la1":30.2991,"la2":30.254,"lo1":-89.0895,"lo2":-89.0444,"dy":0.0017,"dx":0.0017,"nx":28,"ny":28,"refTime":"2024-05-18T21:00:00:Z","depth":0,"parameterNumber":3,"parameterNumberName":"V-component_of_WINDS"},"data":[0,0,0,0,0,0,0,0,0,0,0,0,0,0,0,0,0,0,0,0,0,0,0,0,0,0,0,0,0,0,0,0,0,0,0,0,0,0,0,0,0,0,0,0,0,0,0,0,0,0,0,0,0,0,0,0,0,0,2.1669,2.1672,0,2.196,2.1963,2.1966,2.2021,2.2019,2.2016,2.2014,2.2317,2.2327,2.2337,0,0,0,0,0,0,0,0,0,0,0,0,0,2.1165,2.1174,2.1669,2.1672,2.1676,2.1959,2.1963,2.1967,2.2021,2.2018,2.2016,2.2013,2.2313,2.2325,2.2338,0,0,0,0,0,0,0,0,0,0,0,0,0,2.1413,2.1177,2.1668,2.1737,2.1746,2.1958,2.1963,2.1968,2.2022,2.2018,2.2015,2.2012,2.2309,2.2324,2.2339,2.2505,0,0,2.2386,2.2393,0,0,0,0,0,0,0,0,2.1398,2.1431,2.1723,2.1733,2.1743,2.195,2.1897,2.2148,2.2023,2.1917,2.2014,2.201,2.2198,2.2222,2.2285,2.2519,2.2532,2.2388,2.2397,2.2404,2.2408,0,0,0,0,0,0,0,2.1381,2.1419,2.1784,2.1727,2.174,2.1755,2.1786,2.1945,2.2074,2.1926,2.1931,2.1964,2.2203,2.227,2.2292,2.2537,2.2387,2.2401,2.241,2.2416,2.2923,2.2927,0,0,0,0,0,0,2.1351,2.1404,2.1775,2.1793,2.1558,2.1767,2.1802,2.1888,2.2072,2.2097,2.1967,2.1966,2.2245,2.2274,2.2303,2.2511,2.2404,2.2418,2.2427,2.2919,2.2924,2.2928,0,0,0,0,0,0,2.134,2.1384,2.1763,2.16,2.1649,2.1779,2.1875,2.1895,2.1962,2.2103,2.2127,2.2011,2.2244,2.2281,2.2454,2.2522,2.2425,2.2439,2.2914,2.292,2.2926,2.2926,0,0,0,0,0,0,2.1325,2.1379,2.1443,2.1601,2.1658,2.1908,2.1879,2.1903,2.1988,2.1989,2.2151,2.2175,2.2244,2.2431,2.247,2.2541,2.2451,2.2908,2.2917,2.2924,2.292,2.2931,2.2941,0,0,0,0,0,2.1307,2.1432,2.1446,2.149,2.1739,2.1912,2.1945,2.202,2.1993,2.2059,2.2149,2.217,2.2507,2.2448,2.2492,2.2569,2.2905,2.2914,2.2924,2.2916,2.2929,2.294,0,0,0,0,0,0,2.128,2.1454,2.1471,2.165,2.1766,2.1921,2.2006,2.2032,2.2159,2.2155,2.2244,2.228,2.2449,2.2526,2.2457,2.274,2.2704,2.2723,2.2684,2.2697,2.2707,2.2686,2.2464,0,0,0,0,0,2.1294,2.1418,2.1564,2.1708,2.1765,2.1875,2.1953,2.2001,2.2125,2.2175,2.2278,2.2399,2.2533,2.2619,2.275,2.2931,2.2968,2.3006,2.3016,2.3023,2.3039,2.3142,2.3161,2.296,2.296,2.2959,0,0,2.1327,2.1437,2.151,2.1706,2.1801,2.1929,2.1916,2.2052,2.2149,2.2196,2.2366,2.2446,2.2586,2.2764,2.2848,2.2834,2.3103,2.3035,2.304,2.3053,2.3154,2.3173,2.319,2.2966,2.2965,2.2964,0,0,2.1451,2.1546,2.1677,2.1772,2.1915,2.1988,2.2019,2.217,2.2225,2.2396,2.2434,2.2551,2.2778,2.2878,2.2958,2.3118,2.3143,2.3158,2.3212,2.3312,2.3328,2.3342,2.3401,2.3421,2.3173,2.3173,2.3173,0,2.1473,2.1666,2.1741,2.1876,2.1962,2.2008,2.2142,2.2232,2.2411,2.247,2.2451,2.2738,2.2836,2.3038,2.3077,2.314,2.318,2.3142,2.3319,2.3334,2.3349,2.3406,2.3428,2.3174,2.3174,2.3174,2.3174,0,2.1688,2.1821,2.191,2.208,2.2176,2.2309,2.2406,2.2494,2.2533,2.2607,2.2782,2.29,2.3056,2.3107,2.3148,2.3316,2.3303,2.33,2.3267,2.3368,2.3424,2.3446,2.3176,2.3176,2.3175,2.3175,0,0,2.1805,2.2014,2.2046,2.2124,2.2285,2.2391,2.2527,2.2678,2.2752,2.2874,2.2992,2.3182,2.3181,2.3272,2.3323,2.341,2.3532,2.3397,2.3402,2.342,2.3727,2.3729,2.3754,2.3547,2.3552,2.3555,2.3716,0,2.195,2.2193,2.2264,2.247,2.2595,2.264,2.2759,2.2872,2.2944,2.3062,2.3143,2.3278,2.3265,2.332,2.3408,2.3498,2.3595,2.3487,2.366,2.3665,2.3626,2.3783,2.3786,2.3932,2.3738,2.3741,2.3744,0,2.2153,2.2277,2.2494,2.2639,2.2695,2.28,2.2944,2.3056,2.3185,2.3232,2.3332,2.3376,2.3521,2.3477,2.368,2.3605,2.368,2.3735,2.3742,2.3763,2.3712,2.381,2.398,2.4002,2.3779,2.3776,2.3773,0,2.2219,2.244,2.2599,2.2665,2.2838,2.2911,2.2987,2.3112,2.3198,2.3324,2.3382,2.3523,2.3601,2.3711,2.3792,2.3752,2.3988,2.3951,2.4033,2.4031,2.4083,2.4079,2.4269,2.4127,2.4126,2.4126,2.4126,0,2.2375,2.2507,2.2631,2.2729,2.2879,2.2959,2.3105,2.3183,2.3294,2.3409,2.3457,2.3564,2.3664,2.3785,2.3849,2.4008,2.4042,2.4086,2.4102,2.4083,2.4078,2.4136,2.4128,2.4132,2.4131,2.4129,2.4128,0,2.2476,2.2564,2.2741,2.2889,2.293,2.3033,2.3162,2.3259,2.3333,2.3478,2.3517,2.3634,2.3778,2.3869,2.4054,2.4097,2.4272,2.4284,2.4229,2.4237,2.4315,2.4307,2.4551,2.4588,2.4417,2.4419,2.442,0,2.2571,2.2673,2.2832,2.2912,2.2988,2.3116,2.3203,2.3286,2.3376,2.353,2.361,2.3757,2.388,2.4109,2.4212,2.4353,2.437,2.4445,2.4392,2.437,2.4374,2.4368,2.4379,2.4455,2.4457,2.4458,2.4459,0,2.2731,2.2769,2.2893,2.3032,2.3135,2.325,2.3364,2.3427,2.3529,2.3628,2.3776,2.3871,2.4058,2.4205,2.4355,2.4435,2.4465,2.4474,2.4501,2.4485,2.4449,2.4472,2.4255,2.4469,2.4468,2.4467,2.4467,2.4466,2.2833,2.2927,2.3053,2.319,2.3284,2.3389,2.3488,2.3574,2.3698,2.3856,2.3898,2.4053,2.418,2.4385,2.4467,2.4591,2.4581,2.4619,2.463,2.4639,2.4641,2.4427,2.4618,2.4618,2.4618,2.4618,2.4618,0,2.2998,2.3081,2.3205,2.3363,2.3471,2.3486,2.3614,2.3703,2.3839,2.3954,2.4073,2.4243,2.4385,2.4498,2.4644,2.4722,2.4739,2.4758,2.4754,2.4773,2.4641,2.4604,2.4741,2.4741,2.4741,2.4741,2.4741,2.4741,2.3096,2.3255,2.3308,2.3515,2.3598,2.3749,2.382,2.3918,2.4011,2.4198,2.4316,2.4387,2.4502,2.4657,2.4789,2.4818,2.4871,2.4887,2.492,2.4795,2.4782,2.4769,2.4735,2.4897,2.4898,2.5042,2.5043,2.5044]}]]